Regional Weather Roundup
Issued by NWS

Home | Current Version | Previous Version | Text Only | Print | Product List | Glossary On
Versions: 1 2 3 4 5 6 7 8 9 10 11 12 13 14 15 16 17 18 19 20 21 22 23 24 25 26 27 28 29 30 31 32 33 34 35 36 37 38 39 40 41 42 43 44 45 46 47 48 49 50
000
ASUS43 KLMK 272210
RWRKY
KENTUCKY REGIONAL WEATHER ROUNDUP
NATIONAL WEATHER SERVICE LOUISVILLE KY
600 PM EDT MON MAR 27 2017

NOTE "FAIR" INDICATES FEW OR NO CLOUDS BELOW 12,000 FEET
WITH NO SIGNIFICANT WEATHER AND/OR OBSTRUCTIONS TO VISIBILITY.

KYZ001>023-026-027-061>063-070>075-272300-
WESTERN AND SOUTH CENTRAL KENTUCKY

CITY           SKY/WX    TMP DP  RH WIND       PRES   REMARKS
PADUCAH        PTSUNNY   62  56  80 SW5       29.80R
HENDERSON      CLOUDY    59  54  82 SW3       29.79R
OWENSBORO      TSTM      58  55  90 SE15      29.78F
HOPKINSVILLE   LGT RAIN  58  58 100 SE12      29.81F
BOWLING GREEN  RAIN      59  55  87 W12G21    29.89S FOG
GLASGOW          N/A     57  53  88 W21G49    29.92R THUNDER
$$

KYZ024-025-028>034-038-045-046-053-272300-
NORTH CENTRAL KENTUCKY

CITY           SKY/WX    TMP DP  RH WIND       PRES   REMARKS
LOUISVILLE/SDF TSTM      65  60  84 SE12      29.82S
LOUISVILLE/LOU TSTM      66  60  81 S5        29.84S
FORT KNOX      TSTM      57  57 100 S16G28    29.85R FOG
$$

KYZ035>037-039>044-047>052-055>060-089>105-272300-
NORTHEAST KENTUCKY

CITY           SKY/WX    TMP DP  RH WIND       PRES   REMARKS
LEXINGTON      LGT RAIN  66  57  72 SE6       29.86F
COVINGTON      CLOUDY    67  55  65 S8        29.85F
FRANKFORT      CLOUDY    67  56  67 N3        29.82F
$$

KYZ054-064>069-076>088-106>120-272300-
SOUTHEAST KENTUCKY

CITY           SKY/WX    TMP DP  RH WIND       PRES   REMARKS
JACKSON        MOSUNNY   67  58  72 CALM      29.89F
LONDON         MOSUNNY   70  55  59 SE7       29.87F
SOMERSET       RAIN      70  52  52 S12G20    29.86S
MIDDLESBORO    CLOUDY    74  55  50 S8        29.90R
MONTICELLO     CLOUDY    72  54  53 SW10G25   29.87R
$$




USA.gov is the U.S. government's official web portal to all federal, state and local government web resources and services.